Shute Harbour, Australia

6:03 PM AEST on August 24, 2017 (GMT +1000)
Shute Harbour

Weather History for 94368 - March, 2013

Change the Weather History Date:

Thursday, March 28, 2013

  Actual Average Record
Temperature  
Mean Temperature 78 °F -  
Max Temperature 82 °F - - ()
Min Temperature 73 °F - - ()
Cooling Degree Days 12    
Growing Degree Days 28 (Base 50)    
Moisture  
Dew Point 72 °F    
Average Humidity 82    
Maximum Humidity 90    
Minimum Humidity 62    
Precipitation  
Precipitation 0.08 in - - ()
Sea Level Pressure  
Sea Level Pressure 29.95 in    
Wind  
Wind Speed 19 mph ()    
Max Wind Speed 28 mph    
Max Gust Speed 33 mph    
T = Trace of Precipitation, MM = Missing Value Source: Averaged Metar Reports

Daily Weather History Graph

Daily Weather History Graph

Search for Another Location

Airport or City:

Trip Planner

Search our weather history database for the weather conditions in past years. The results will help you decide how hot, cold, wet, or windy it might be!

Date:

Astronomy

Mar. 28, 2013 Rise Set
Actual Time 6:10 AM AEST 6:08 PM AEST
Civil Twilight 5:48 AM AEST 6:30 PM AEST
Nautical Twilight 5:22 AM AEST 6:55 PM AEST
Astronomical Twilight 4:56 AM AEST 7:21 PM AEST
Moon 6:37 PM AEST (3/28) 6:38 AM AEST (3/28)
Length of Visible Light 12h 42m
Length of Day
11h 58m
Waxing Gibbous, 99% of the Moon is Illuminated
Mar 28
Waxing Gibbous
Apr 3
Last Quarter
Apr 10
New
Apr 18
First Quarter
Apr 26
Full

Hourly Weather History & Observations

Time (AEST) Temp. Heat Index Dew Point Humidity Pressure Visibility Wind Dir Wind Speed Gust Speed Precip Events Conditions
12:00 AM 77 °F - 73 °F 83% 29.96 in - ESE 20.7 mph - -  
12:00 AM 77.0 °F - 73.4 °F 89% 29.95 in - ESE 20.7 mph - N/A   Unknown
12:30 AM 77.0 °F - 71.6 °F 83% 29.95 in - ESE 20.7 mph - N/A   Unknown
1:00 AM 77.0 °F - 73.4 °F 89% 29.95 in - ESE 19.6 mph - N/A   Unknown
1:30 AM 77.0 °F - 73.4 °F 89% 29.95 in - ESE 20.7 mph - N/A   Unknown
2:00 AM 77.0 °F - 73.4 °F 89% 29.92 in - ESE 20.7 mph - N/A   Unknown
2:30 AM 77.0 °F - 73.4 °F 89% 29.92 in - ESE 20.7 mph - N/A   Unknown
3:00 AM 77 °F - 72 °F 80% 29.92 in - ESE 19.6 mph - -  
3:00 AM 77.0 °F - 71.6 °F 83% 29.92 in - ESE 19.6 mph - N/A   Unknown
3:30 AM 77.0 °F - 71.6 °F 83% 29.92 in - ESE 18.4 mph - N/A   Unknown
4:00 AM 77.0 °F - 73.4 °F 89% 29.92 in - ESE 18.4 mph - N/A   Unknown
4:30 AM 77.0 °F - 73.4 °F 89% 29.92 in - ESE 20.7 mph - N/A   Unknown
5:00 AM 77.0 °F - 71.6 °F 83% 29.92 in - ESE 19.6 mph - N/A   Unknown
5:30 AM 77.0 °F - 73.4 °F 89% 29.92 in - ESE 19.6 mph - N/A   Unknown
6:00 AM 77 °F - 73 °F 85% 29.94 in - ESE 18.4 mph - -  
6:00 AM 77.0 °F - 73.4 °F 89% 29.95 in - ESE 18.4 mph - N/A   Unknown
6:30 AM 77.0 °F - 73.4 °F 89% 29.95 in - ESE 19.6 mph - N/A   Unknown
7:00 AM 77.0 °F - 73.4 °F 89% 29.95 in - SE 17.3 mph - N/A   Unknown
7:30 AM 77.0 °F - 73.4 °F 89% 29.98 in - SE 21.9 mph - N/A   Unknown
8:00 AM 78.8 °F - 73.4 °F 83% 29.98 in - ESE 17.3 mph - N/A   Unknown
8:30 AM 78.8 °F - 73.4 °F 83% 29.98 in - SE 17.3 mph - N/A   Unknown
9:00 AM 80 °F - 73 °F 74% 29.98 in - ESE 23.0 mph - -  
9:00 AM 80.6 °F 85.4 °F 73.4 °F 79% 29.98 in - ESE 23.0 mph - N/A   Unknown
9:30 AM 80.6 °F 85.4 °F 73.4 °F 79% 29.98 in - ESE 23.0 mph - N/A   Unknown
10:00 AM 80.6 °F 85.4 °F 73.4 °F 79% 29.98 in - ESE 20.7 mph - N/A   Unknown
10:16 AM 78.8 °F - 73.4 °F 83% 29.98 in - ESE 21.9 mph 33.4 mph N/A   Unknown
10:30 AM 78.8 °F - 71.6 °F 78% 29.98 in - ESE 23.0 mph - N/A   Unknown
11:00 AM 80.6 °F 85.4 °F 73.4 °F 79% 29.98 in - ESE 21.9 mph - N/A   Unknown
11:30 AM 82.4 °F 89.5 °F 75.2 °F 79% 29.98 in - ESE 16.1 mph - N/A   Unknown
11:55 AM 77.0 °F - 71.6 °F 83% 29.95 in - East 27.6 mph - N/A   Unknown
12:00 PM 76 °F - 74 °F 90% 29.96 in - ESE 21.9 mph - -  
12:00 PM 77.0 °F - 73.4 °F 89% 29.95 in - ESE 21.9 mph - N/A   Unknown
12:30 PM 80.6 °F 85.4 °F 73.4 °F 79% 29.95 in - ESE 24.2 mph - N/A   Unknown
1:00 PM 80.6 °F 84.6 °F 71.6 °F 74% 29.95 in - ESE 23.0 mph - N/A   Unknown
1:30 PM 80.6 °F 83.9 °F 69.8 °F 70% 29.92 in - ESE 24.2 mph - N/A   Unknown
2:00 PM 80.6 °F 83.9 °F 69.8 °F 70% 29.92 in - ESE 23.0 mph - N/A   Unknown
2:30 PM 80.6 °F 83.9 °F 69.8 °F 70% 29.92 in - ESE 21.9 mph - N/A   Unknown
3:00 PM 80 °F - 69 °F 62% 29.91 in - ESE 23.0 mph - -  
3:00 PM 80.6 °F 83.9 °F 69.8 °F 70% 29.92 in - ESE 23.0 mph - N/A   Unknown
3:30 PM 78.8 °F - 71.6 °F 78% 29.92 in - SE 25.3 mph - N/A   Unknown
4:00 PM 78.8 °F - 71.6 °F 78% 29.92 in - SE 23.0 mph - N/A   Unknown
4:30 PM 78.8 °F - 71.6 °F 78% 29.92 in - ESE 24.2 mph - N/A   Unknown
5:00 PM 78.8 °F - 71.6 °F 78% 29.92 in - ESE 24.2 mph - N/A   Unknown
5:30 PM 77.0 °F - 71.6 °F 83% 29.92 in - SE 25.3 mph - N/A   Unknown
6:00 PM 77 °F - 72 °F 79% 29.94 in - ESE 21.9 mph - -  
6:00 PM 77.0 °F - 71.6 °F 83% 29.95 in - ESE 21.9 mph - N/A   Unknown
6:30 PM 77.0 °F - 71.6 °F 83% 29.95 in - SE 20.7 mph - N/A   Unknown
7:00 PM 77.0 °F - 71.6 °F 83% 29.95 in - ESE 18.4 mph - N/A   Unknown
7:30 PM 77.0 °F - 71.6 °F 83% 29.98 in - SE 20.7 mph - N/A   Unknown
8:00 PM 77.0 °F - 71.6 °F 83% 29.98 in - SE 20.7 mph - N/A   Unknown
8:30 PM 77.0 °F - 71.6 °F 83% 29.98 in - SE 19.6 mph - N/A   Unknown
9:00 PM 76 °F - 71 °F 81% 29.99 in - ESE 19.6 mph - -  
9:00 PM 77.0 °F - 71.6 °F 83% 29.98 in - ESE 19.6 mph - N/A   Unknown
9:30 PM 77.0 °F - 71.6 °F 83% 29.98 in - SE 21.9 mph - N/A   Unknown
10:00 PM 77.0 °F - 71.6 °F 83% 29.98 in - SE 19.6 mph - N/A   Unknown
10:30 PM 77.0 °F - 71.6 °F 83% 29.98 in - SE 19.6 mph - N/A   Unknown
11:00 PM 77.0 °F - 71.6 °F 83% 29.98 in - SE 19.6 mph - N/A   Unknown
11:30 PM 77.0 °F - 71.6 °F 83% 29.98 in - SE 20.7 mph - N/A   Unknown